When you browse on this site, cookies collect data to enhance your experience and personalize the content and advertising you see.
Visit our Privacy Policy to learn more. By continuing to use the site, you agree to this use of cookies and data.
  • In Schweiz
  • Länderverzeichnis
  • Für 7 Tage
  • Wassertemperatur
  • Wetterkarte
  • Widgets
  • user-avatar
    Anmelden

    Stündliche Wetter Qala i Naw

    Heute, 21 Februar, Freitag

    Zeit Temperatur Niederschläge Wind Luftdruck Luftfeuchtigkeit
    00:00 +11°C° 0 mm 3 m/S 680 mmHg 29%
    01:00 +10°C° 0 mm 3 m/S 679 mmHg 29%
    02:00 +11°C° 0 mm 3 m/S 679 mmHg 29%
    03:00 +11°C° 0 mm 4 m/S 679 mmHg 29%
    04:00 +11°C° 0 mm 4 m/S 679 mmHg 27%
    05:00 +11°C° 0 mm 4 m/S 679 mmHg 32%
    06:00 +10°C° 0 mm 5 m/S 679 mmHg 37%
    07:00 +10°C° 0 mm 5 m/S 679 mmHg 42%
    08:00 +12°C° 0 mm 4 m/S 680 mmHg 39%
    09:00 +13°C° 0 mm 3 m/S 681 mmHg 37%
    10:00 +15°C° 0 mm 1 m/S 681 mmHg 35%
    17:00 +18°C° 0 mm 3 m/S 682 mmHg 38%
    18:00 +16°C° 0 mm 2 m/S 683 mmHg 45%
    19:00 +14°C° 0 mm 2 m/S 683 mmHg 52%
    20:00 +14°C° 0 mm 1 m/S 683 mmHg 55%
    21:00 +13°C° 0 mm 1 m/S 684 mmHg 58%
    22:00 +12°C° 0 mm 1 m/S 684 mmHg 61%
    23:00 +11°C° 0 mm 1 m/S 684 mmHg 61%

    Morgen, 22 Februar, Samstag

    Zeit Temperatur Niederschläge Wind Luftdruck Luftfeuchtigkeit
    00:00 +11°C° 0 mm 1 m/S 684 mmHg 62%
    01:00 +11°C° 0 mm 1 m/S 683 mmHg 62%
    02:00 +10°C° 0 mm 1 m/S 683 mmHg 62%
    03:00 +10°C° 0 mm 1 m/S 684 mmHg 61%
    04:00 +10°C° 0 mm 1 m/S 684 mmHg 61%
    05:00 +10°C° 0 mm 1 m/S 684 mmHg 60%
    06:00 +10°C° 0 mm 1 m/S 684 mmHg 59%
    07:00 +9°C° 0 mm 2 m/S 685 mmHg 58%
    08:00 +12°C° 0 mm 2 m/S 685 mmHg 51%
    09:00 +14°C° 0 mm 2 m/S 686 mmHg 43%
    10:00 +17°C° 0 mm 2 m/S 686 mmHg 36%
    11:00 +18°C° 0 mm 2 m/S 686 mmHg 34%
    12:00 +19°C° 0 mm 2 m/S 686 mmHg 31%
    13:00 +20°C° 0 mm 2 m/S 685 mmHg 29%
    14:00 +20°C° 0 mm 2 m/S 685 mmHg 31%
    15:00 +20°C° 0 mm 2 m/S 685 mmHg 32%
    16:00 +20°C° 0 mm 3 m/S 685 mmHg 34%
    17:00 +18°C° 0 mm 2 m/S 685 mmHg 42%
    18:00 +16°C° 0 mm 1 m/S 684 mmHg 50%
    19:00 +13°C° 0 mm 0 m/S 684 mmHg 58%
    20:00 +14°C° 0 mm 1 m/S 684 mmHg 57%
    21:00 +14°C° 0 mm 1 m/S 684 mmHg 55%
    22:00 +14°C° 0 mm 1 m/S 684 mmHg 54%
    23:00 +13°C° 0 mm 2 m/S 684 mmHg 52%

    übermorgen, 23 Februar, Sonntag

    Zeit Temperatur Niederschläge Wind Luftdruck Luftfeuchtigkeit
    00:00 +13°C° 0 mm 2 m/S 684 mmHg 50%
    01:00 +12°C° 0 mm 3 m/S 683 mmHg 48%
    02:00 +12°C° 0 mm 3 m/S 683 mmHg 48%
    03:00 +11°C° 0 mm 3 m/S 682 mmHg 48%
    04:00 +11°C° 0 mm 3 m/S 682 mmHg 48%
    05:00 +11°C° 0 mm 3 m/S 682 mmHg 49%
    06:00 +11°C° 0 mm 3 m/S 682 mmHg 49%
    07:00 +11°C° 0 mm 3 m/S 682 mmHg 50%
    08:00 +13°C° 0 mm 3 m/S 683 mmHg 46%
    09:00 +15°C° 0 mm 4 m/S 683 mmHg 42%
    10:00 +19°C° 0 mm 4 m/S 684 mmHg 38%
    11:00 +20°C° 0 mm 5 m/S 684 mmHg 36%
    12:00 +21°C° 0 mm 5 m/S 683 mmHg 34%
    13:00 +22°C° 0 mm 5 m/S 683 mmHg 33%
    14:00 +21°C° 0 mm 5 m/S 683 mmHg 34%
    15:00 +21°C° 0 mm 4 m/S 682 mmHg 36%
    16:00 +21°C° 0 mm 4 m/S 682 mmHg 37%
    17:00 +19°C° 0 mm 3 m/S 682 mmHg 43%
    18:00 +18°C° 0 mm 3 m/S 682 mmHg 48%
    19:00 +16°C° 0 mm 2 m/S 683 mmHg 53%
    20:00 +15°C° 0 mm 2 m/S 683 mmHg 60%
    21:00 +14°C° 0 mm 2 m/S 683 mmHg 67%
    22:00 +12°C° 0 mm 2 m/S 683 mmHg 74%
    23:00 +12°C° 0 mm 2 m/S 683 mmHg 76%

    24 Februar, Montag

    Zeit Temperatur Niederschläge Wind Luftdruck Luftfeuchtigkeit
    00:00 +11°C° 0 mm 1 m/S 683 mmHg 78%
    01:00 +11°C° 0 mm 1 m/S 682 mmHg 80%
    02:00 +11°C° 0 mm 1 m/S 682 mmHg 79%
    03:00 +10°C° 0 mm 1 m/S 682 mmHg 79%
    04:00 +10°C° 0 mm 1 m/S 682 mmHg 78%
    05:00 +10°C° 0 mm 1 m/S 682 mmHg 76%
    06:00 +10°C° 0 mm 1 m/S 682 mmHg 74%
    07:00 +10°C° 0 mm 1 m/S 682 mmHg 71%
    08:00 +12°C° 0 mm 1 m/S 683 mmHg 62%
    09:00 +14°C° 0 mm 1 m/S 683 mmHg 53%
    10:00 +16°C° 0 mm 2 m/S 683 mmHg 44%
    11:00 +17°C° 0 mm 2 m/S 683 mmHg 39%
    12:00 +18°C° 0 mm 3 m/S 683 mmHg 34%
    13:00 +19°C° 0 mm 3 m/S 682 mmHg 28%
    14:00 +20°C° 0 mm 3 m/S 682 mmHg 28%
    15:00 +20°C° 0 mm 3 m/S 682 mmHg 28%
    16:00 +20°C° 0 mm 3 m/S 682 mmHg 27%
    17:00 +18°C° 0 mm 3 m/S 682 mmHg 32%
    18:00 +17°C° 0 mm 2 m/S 681 mmHg 36%
    19:00 +15°C° 0 mm 1 m/S 681 mmHg 41%
    20:00 +15°C° 0 mm 2 m/S 681 mmHg 39%
    21:00 +14°C° 0 mm 3 m/S 681 mmHg 37%
    22:00 +14°C° 0 mm 3 m/S 682 mmHg 35%
    23:00 +13°C° 0 mm 3 m/S 681 mmHg 36%

    25 Februar, Dienstag

    Zeit Temperatur Niederschläge Wind Luftdruck Luftfeuchtigkeit
    00:00 +13°C° 0 mm 3 m/S 681 mmHg 36%
    01:00 +13°C° 0 mm 3 m/S 681 mmHg 36%
    02:00 +13°C° 0 mm 4 m/S 680 mmHg 37%
    03:00 +12°C° 0 mm 4 m/S 680 mmHg 37%
    04:00 +12°C° 0 mm 4 m/S 679 mmHg 38%
    05:00 +12°C° 0 mm 4 m/S 679 mmHg 38%
    06:00 +12°C° 0 mm 4 m/S 679 mmHg 38%
    07:00 +12°C° 0 mm 4 m/S 679 mmHg 38%
    08:00 +15°C° 0 mm 5 m/S 680 mmHg 35%
    09:00 +17°C° 0 mm 5 m/S 680 mmHg 31%
    10:00 +20°C° 0 mm 6 m/S 680 mmHg 28%
    11:00 +21°C° 0 mm 6 m/S 680 mmHg 27%
    12:00 +22°C° 0 mm 6 m/S 680 mmHg 26%
    13:00 +23°C° 0 mm 6 m/S 680 mmHg 26%
    14:00 +22°C° 0 mm 6 m/S 679 mmHg 29%
    15:00 +21°C° 0 mm 6 m/S 679 mmHg 33%
    16:00 +20°C° 0 mm 5 m/S 678 mmHg 37%
    17:00 +20°C° 0 mm 6 m/S 678 mmHg 39%
    18:00 +19°C° 0 mm 6 m/S 678 mmHg 41%
    19:00 +17°C° 0 mm 7 m/S 677 mmHg 43%
    20:00 +17°C° 0 mm 7 m/S 677 mmHg 42%
    21:00 +17°C° 0 mm 7 m/S 677 mmHg 41%
    22:00 +17°C° 0 mm 7 m/S 676 mmHg 40%
    23:00 +17°C° 0 mm 7 m/S 676 mmHg 40%

    26 Februar, Mittwoch

    Zeit Temperatur Niederschläge Wind Luftdruck Luftfeuchtigkeit
    00:00 +16°C° 0 mm 7 m/S 675 mmHg 40%
    01:00 +16°C° 0 mm 8 m/S 675 mmHg 40%
    02:00 +16°C° 0 mm 8 m/S 674 mmHg 39%
    03:00 +16°C° 0 mm 8 m/S 673 mmHg 39%
    04:00 +16°C° 0 mm 8 m/S 672 mmHg 39%
    05:00 +16°C° 0 mm 8 m/S 672 mmHg 38%
    06:00 +16°C° 0 mm 9 m/S 672 mmHg 36%
    07:00 +17°C° 0 mm 10 m/S 672 mmHg 34%
    08:00 +17°C° 0.3 mm 10 m/S 672 mmHg 40%
    09:00 +17°C° 0.3 mm 11 m/S 673 mmHg 45%
    10:00 +18°C° 0.3 mm 11 m/S 673 mmHg 51%
    11:00 +16°C° 1.9 mm 11 m/S 673 mmHg 58%
    12:00 +13°C° 1.9 mm 10 m/S 673 mmHg 64%
    13:00 +12°C° 1.9 mm 10 m/S 673 mmHg 71%
    14:00 +11°C° 1.3 mm 10 m/S 674 mmHg 69%
    15:00 +10°C° 1.3 mm 9 m/S 676 mmHg 68%
    16:00 +10°C° 1.3 mm 9 m/S 677 mmHg 66%
    17:00 +7°C° 0.6 mm 8 m/S 678 mmHg 71%
    18:00 +5°C° 0.6 mm 6 m/S 679 mmHg 75%
    19:00 +5°C° 0.6 mm 5 m/S 680 mmHg 80%
    20:00 +3°C° 0.1 mm 5 m/S 680 mmHg 82%
    21:00 +2°C° 0.1 mm 5 m/S 680 mmHg 85%
    22:00 +1°C° 0.1 mm 4 m/S 680 mmHg 87%
    23:00 +1°C° 0.1 mm 4 m/S 680 mmHg 88%
    Mehr zeigen